User: anonymous   Login
Location: Caltech
(34.1382°N, 118.1253°W)
Time: 08:59:32
(UTC-07:00)
Language:

BREEZE M DEB (TANK) - Orbit

View from above orbital plane
View from above orbital plane
View from above satellite
View from above satellite

Ground track
Ground track

The orbit data is extracted from the following two-line orbital elements,

1 33437U 08057B   15117.81339686  .00004438  00000-0  10086-2 0  9995
2 33437 049.5442 193.5442 5011975 228.5362 209.8710 05.57512319130159
Epoch (UTC): 27 April 2015 19:31:17
Eccentricity: 0.5011975
inclination: 49.5442°
perigee height: 323 km
apogee height: 13790 km
right ascension of ascending node: 193.5442°
argument of perigee: 228.5362°
revolutions per day: 5.57512319
mean anomaly at epoch: 209.8710°
orbit number at epoch: 13015

The dashed part of the orbit path shows where the satellite is in the earth's shadow,  

DLR